Location: Bh?mavarapp?du
(16.7041°N, 80.6518°E)
Time: 08:03:53
(UTC+00:00)

Cosmos 1140 Rocket - Pass Details

Date: 21 April 2021
Orbit: 745 x 767 km, 74.1° (Epoch: 06 May)

Event Time Altitude Azimuth Distance (km) Brightness Sun altitude
Rises 14:03:50 0° 175° (S) 3,183 6.5 -16.9°
Reaches altitude 10° 14:06:20 10° 167° (SSE) 2,258 5.6 -17.4°
Maximum altitude 14:11:01 37° 101° (E) 1,153 3.9 -18.5°
Drops below altitude 10° 14:15:40 10° 35° (NE) 2,254 5.8 -19.5°
Sets 14:18:10 0° 27° (NNE) 3,178 6.6 -20.1°
